• In Netherlands
  • List of Countries
  • For 7 days
  • Water Temperature
  • Satellite Maps
  • Weather Map
  • Weather Widgets
  • user-avatar
    Login

    Hourly Weather Salta

    Today, 24 August, Thursday

    Time Temperature Precipitation Wind Pressure Humidity
    00:00 +19°C° 0 mm 1 mps 648 mmHg 35%
    01:00 +18°C° 0 mm 1 mps 648 mmHg 34%
    02:00 +18°C° 0 mm 1 mps 648 mmHg 33%
    03:00 +18°C° 0 mm 1 mps 647 mmHg 33%
    04:00 +18°C° 0 mm 1 mps 647 mmHg 32%
    05:00 +16°C° 0 mm 1 mps 647 mmHg 32%
    06:00 +18°C° 0 mm 1 mps 647 mmHg 31%
    07:00 +19°C° 0 mm 1 mps 648 mmHg 30%
    08:00 +21°C° 0 mm 1 mps 649 mmHg 29%
    09:00 +23°C° 0 mm 2 mps 649 mmHg 27%
    10:00 +25°C° 0 mm 2 mps 650 mmHg 25%
    11:00 +28°C° 0 mm 3 mps 650 mmHg 22%
    12:00 +29°C° 0 mm 3 mps 649 mmHg 21%
    13:00 +29°C° 0 mm 3 mps 649 mmHg 21%
    14:00 +30°C° 0 mm 3 mps 648 mmHg 20%
    15:00 +29°C° 0 mm 3 mps 648 mmHg 21%
    16:00 +29°C° 0 mm 3 mps 648 mmHg 23%
    17:00 +28°C° 0 mm 3 mps 647 mmHg 24%
    18:00 +26°C° 0 mm 2 mps 647 mmHg 30%
    19:00 +23°C° 0 mm 2 mps 647 mmHg 36%
    20:00 +21°C° 0 mm 1 mps 647 mmHg 42%
    21:00 +21°C° 0 mm 1 mps 647 mmHg 41%
    22:00 +20°C° 0 mm 1 mps 647 mmHg 40%
    23:00 +19°C° 0 mm 2 mps 647 mmHg 40%

    Tomorrow, 25 August, Friday

    Time Temperature Precipitation Wind Pressure Humidity
    00:00 +19°C° 0 mm 2 mps 647 mmHg 39%
    01:00 +19°C° 0 mm 2 mps 647 mmHg 38%
    02:00 +18°C° 0 mm 2 mps 646 mmHg 37%
    03:00 +18°C° 0 mm 2 mps 646 mmHg 36%
    04:00 +18°C° 0 mm 2 mps 646 mmHg 36%
    05:00 +17°C° 0 mm 2 mps 646 mmHg 36%
    06:00 +19°C° 0 mm 2 mps 647 mmHg 35%
    07:00 +20°C° 0 mm 2 mps 647 mmHg 33%
    08:00 +21°C° 0 mm 2 mps 648 mmHg 31%
    09:00 +24°C° 0 mm 2 mps 649 mmHg 28%
    10:00 +27°C° 0 mm 2 mps 650 mmHg 25%
    11:00 +30°C° 0 mm 2 mps 651 mmHg 22%
    12:00 +30°C° 0 mm 2 mps 650 mmHg 21%
    13:00 +31°C° 0 mm 3 mps 649 mmHg 19%
    14:00 +33°C° 0 mm 3 mps 649 mmHg 17%
    15:00 +31°C° 0 mm 3 mps 648 mmHg 19%
    16:00 +31°C° 0 mm 3 mps 648 mmHg 20%
    17:00 +30°C° 0 mm 3 mps 648 mmHg 22%
    18:00 +28°C° 0 mm 2 mps 648 mmHg 29%
    19:00 +25°C° 0 mm 1 mps 649 mmHg 35%
    20:00 +23°C° 0 mm 1 mps 649 mmHg 42%
    21:00 +22°C° 0 mm 1 mps 649 mmHg 42%
    22:00 +22°C° 0 mm 1 mps 650 mmHg 41%
    23:00 +20°C° 0 mm 2 mps 650 mmHg 41%

    Day after tomorrow, 26 August, Saturday

    Time Temperature Precipitation Wind Pressure Humidity
    00:00 +20°C° 0 mm 2 mps 650 mmHg 42%
    01:00 +19°C° 0 mm 2 mps 650 mmHg 42%
    02:00 +18°C° 0 mm 2 mps 649 mmHg 43%
    03:00 +18°C° 0 mm 2 mps 650 mmHg 43%
    04:00 +17°C° 0 mm 2 mps 650 mmHg 43%
    05:00 +17°C° 0 mm 2 mps 650 mmHg 43%
    06:00 +17°C° 0 mm 2 mps 651 mmHg 40%
    07:00 +18°C° 0 mm 2 mps 652 mmHg 37%
    08:00 +18°C° 0 mm 2 mps 652 mmHg 34%
    09:00 +20°C° 0 mm 2 mps 653 mmHg 32%
    10:00 +22°C° 0 mm 3 mps 653 mmHg 30%
    11:00 +24°C° 0 mm 3 mps 653 mmHg 28%
    12:00 +25°C° 0 mm 3 mps 653 mmHg 27%
    13:00 +26°C° 0 mm 3 mps 652 mmHg 27%
    14:00 +26°C° 0 mm 4 mps 652 mmHg 27%
    15:00 +26°C° 0 mm 4 mps 651 mmHg 30%
    16:00 +25°C° 0 mm 3 mps 651 mmHg 33%
    17:00 +24°C° 0 mm 3 mps 651 mmHg 36%
    18:00 +21°C° 0 mm 3 mps 651 mmHg 43%
    19:00 +19°C° 0 mm 2 mps 651 mmHg 49%
    20:00 +18°C° 0 mm 1 mps 651 mmHg 55%
    21:00 +18°C° 0 mm 1 mps 651 mmHg 56%
    22:00 +16°C° 0 mm 1 mps 651 mmHg 56%
    23:00 +15°C° 0 mm 1 mps 651 mmHg 57%

    27 August, Sunday

    Time Temperature Precipitation Wind Pressure Humidity
    00:00 +15°C° 0 mm 1 mps 651 mmHg 56%
    01:00 +15°C° 0 mm 1 mps 651 mmHg 55%
    02:00 +15°C° 0 mm 2 mps 650 mmHg 54%
    03:00 +14°C° 0 mm 1 mps 650 mmHg 52%
    04:00 +14°C° 0 mm 1 mps 650 mmHg 51%
    05:00 +14°C° 0 mm 1 mps 650 mmHg 49%
    06:00 +15°C° 0 mm 1 mps 650 mmHg 48%
    07:00 +18°C° 0 mm 1 mps 651 mmHg 47%
    08:00 +19°C° 0 mm 1 mps 652 mmHg 46%
    09:00 +20°C° 0 mm 2 mps 652 mmHg 44%
    10:00 +21°C° 0 mm 2 mps 652 mmHg 42%
    11:00 +24°C° 0 mm 2 mps 652 mmHg 40%
    12:00 +26°C° 0 mm 2 mps 651 mmHg 37%
    13:00 +27°C° 0 mm 3 mps 651 mmHg 34%
    14:00 +28°C° 0 mm 3 mps 650 mmHg 31%
    15:00 +27°C° 0 mm 3 mps 650 mmHg 33%
    16:00 +27°C° 0 mm 3 mps 650 mmHg 35%
    17:00 +26°C° 0 mm 3 mps 650 mmHg 36%
    18:00 +24°C° 0 mm 2 mps 650 mmHg 46%
    19:00 +22°C° 0 mm 1 mps 650 mmHg 55%
    20:00 +20°C° 0 mm 1 mps 650 mmHg 64%
    21:00 +19°C° 0 mm 1 mps 650 mmHg 65%
    22:00 +19°C° 0 mm 1 mps 650 mmHg 66%
    23:00 +18°C° 0 mm 1 mps 650 mmHg 66%

    28 August, Monday

    Time Temperature Precipitation Wind Pressure Humidity
    00:00 +18°C° 0 mm 1 mps 650 mmHg 64%
    01:00 +18°C° 0 mm 1 mps 650 mmHg 61%
    02:00 +18°C° 0 mm 1 mps 649 mmHg 59%
    03:00 +17°C° 0 mm 2 mps 649 mmHg 57%
    04:00 +17°C° 0 mm 2 mps 649 mmHg 54%
    05:00 +16°C° 0 mm 2 mps 649 mmHg 52%
    06:00 +18°C° 0 mm 2 mps 649 mmHg 50%
    07:00 +20°C° 0 mm 1 mps 650 mmHg 48%
    08:00 +21°C° 0 mm 1 mps 651 mmHg 45%
    09:00 +23°C° 0 mm 2 mps 651 mmHg 43%
    10:00 +25°C° 0 mm 2 mps 651 mmHg 40%
    11:00 +27°C° 0 mm 2 mps 651 mmHg 37%
    12:00 +28°C° 0 mm 3 mps 651 mmHg 35%
    13:00 +30°C° 0 mm 3 mps 650 mmHg 32%
    14:00 +31°C° 0 mm 3 mps 650 mmHg 29%
    15:00 +30°C° 0 mm 3 mps 650 mmHg 31%
    16:00 +30°C° 0 mm 3 mps 649 mmHg 34%
    17:00 +29°C° 0 mm 3 mps 649 mmHg 36%
    18:00 +27°C° 0 mm 2 mps 649 mmHg 46%
    19:00 +25°C° 0 mm 2 mps 649 mmHg 55%
    20:00 +23°C° 0 mm 1 mps 649 mmHg 65%
    21:00 +22°C° 0.2 mm 1 mps 649 mmHg 64%
    22:00 +22°C° 0.2 mm 1 mps 649 mmHg 63%
    23:00 +21°C° 0.2 mm 2 mps 649 mmHg 62%

    29 August, Tuesday

    Time Temperature Precipitation Wind Pressure Humidity
    00:00 +22°C° 0 mm 1 mps 649 mmHg 59%
    01:00 +22°C° 0 mm 1 mps 649 mmHg 56%
    02:00 +21°C° 0 mm 1 mps 648 mmHg 53%
    03:00 +21°C° 0 mm 1 mps 648 mmHg 50%
    04:00 +20°C° 0 mm 2 mps 648 mmHg 47%
    05:00 +20°C° 0 mm 2 mps 648 mmHg 44%
    06:00 +21°C° 0 mm 2 mps 649 mmHg 41%
    07:00 +23°C° 0 mm 2 mps 650 mmHg 37%
    08:00 +24°C° 0 mm 1 mps 650 mmHg 34%
    09:00 +27°C° 0 mm 2 mps 651 mmHg 31%
    10:00 +29°C° 0 mm 2 mps 651 mmHg 28%
    11:00 +32°C° 0 mm 2 mps 652 mmHg 25%
    12:00 +33°C° 0 mm 3 mps 651 mmHg 24%
    13:00 +34°C° 0 mm 3 mps 651 mmHg 23%
    14:00 +35°C° 0 mm 3 mps 651 mmHg 22%
    15:00 +34°C° 0 mm 3 mps 651 mmHg 25%
    16:00 +33°C° 0 mm 3 mps 651 mmHg 27%
    17:00 +32°C° 0 mm 4 mps 651 mmHg 30%
    18:00 +29°C° 0 mm 3 mps 651 mmHg 39%
    19:00 +27°C° 0 mm 2 mps 652 mmHg 49%
    20:00 +24°C° 0 mm 2 mps 652 mmHg 58%
    21:00 +24°C° 0 mm 1 mps 653 mmHg 62%
    22:00 +23°C° 0 mm 1 mps 653 mmHg 66%
    23:00 +22°C° 0 mm 1 mps 653 mmHg 71%
    Show more